CMS-03 (GSAT-7R)

Last updated on Sun Apr 12 2026 00:02:57 GMT+0000 (Coordinated Universal Time)

1 66311U 25249B 26101.47406078 -.00000076 00000+0 00000+0 0 9997 2 66311 0.0320 262.9674 0003777 107.4430 73.9619 1.00272248 1678
UTC large
Height (km)
Speed (km/s)
/
Latitude / Longitude
Inclination (degrees)
Orbital Period (minutes)
Azimuth
Elevation
Range (km)
Doppler Factor

Next 0 passes for location: London (51.5072 / 0.1276)

Sorry there are no passes over London.
CMS-03 (GSAT-7R)